Tri-Cities, TN

3:54 AM EDT on March 24, 2017 (GMT -0400)
Tri-Cities Regional Tennessee / Virginia

Weather History for KTRI - April, 2014

Change the Weather History Date:

Wednesday, April 9, 2014

  Actual Average Record
Temperature  
Mean Temperature 51 °F 53 °F  
Max Temperature 63 °F 66 °F 84 °F (2015)
Min Temperature 39 °F 41 °F 22 °F (2007)
Degree Days  
Heating Degree Days 14 12  
Month to date heating degree days 78 116  
Since 1 July heating degree days 4189 4066  
Cooling Degree Days 0 0  
Month to date cooling degree days 2 0  
Year to date cooling degree days 2 1  
Growing Degree Days 4 (Base 50)    
Moisture  
Dew Point 33 °F    
Average Humidity 53    
Maximum Humidity 83    
Minimum Humidity 23    
Precipitation  
Precipitation T in 0.12 in 0.71 in (1961)
Month to date precipitation 1.31 0.98  
Year to date precipitation 8.64 11.24  
Snow  
Snow 0.00 in 0.00 in - ()
Month to date snowfall 0.0 0.4  
Since 1 July snowfall 13.0 12.6  
Snow Depth 0.00 in    
Sea Level Pressure  
Sea Level Pressure 29.93 in    
Wind  
Wind Speed 8 mph (West)    
Max Wind Speed 20 mph    
Max Gust Speed 23 mph    
Visibility 10 miles    
Events Rain    
T = Trace of Precipitation, MM = Missing Value Source: NWS Daily Summary

Daily Weather History Graph

Daily Weather History Graph

Search for Another Location

Airport or City:

Trip Planner

Search our weather history database for the weather conditions in past years. The results will help you decide how hot, cold, wet, or windy it might be!

Date:

Astronomy

Apr. 09, 2014 Rise Set
Actual Time 7:04 AM EDT 7:58 PM EDT
Civil Twilight 6:38 AM EDT 8:24 PM EDT
Nautical Twilight 6:06 AM EDT 8:56 PM EDT
Astronomical Twilight 5:34 AM EDT 9:28 PM EDT
Moon 2:53 PM EDT (4/9) 3:44 AM EDT (4/9)
Length of Visible Light 13h 46m
Length of Day
12h 54m
Waxing Gibbous, 71% of the Moon is Illuminated
Apr 9
Waxing Gibbous
Apr 15
Full
Apr 22
Last Quarter
Apr 29
New
May 6
First Quarter

Hourly Weather History & Observations

Time (EDT) Temp. Dew Point Humidity Pressure Visibility Wind Dir Wind Speed Gust Speed Precip Events Conditions
12:53 AM 45.0 °F 39.0 °F 80% 29.76 in 10.0 mi Calm Calm - N/A   Overcast
1:53 AM 45.0 °F 39.0 °F 80% 29.76 in 10.0 mi Calm Calm - N/A   Overcast
2:53 AM 46.0 °F 39.0 °F 76% 29.76 in 10.0 mi Calm Calm - N/A   Overcast
3:53 AM 44.1 °F 39.9 °F 85% 29.77 in 10.0 mi Calm Calm - N/A   Mostly Cloudy
4:53 AM 48.9 °F 37.9 °F 66% 29.78 in 10.0 mi WNW 9.2 mph - N/A   Mostly Cloudy
5:53 AM 50.0 °F 39.9 °F 68% 29.81 in 10.0 mi WNW 10.4 mph - N/A   Overcast
6:53 AM 48.9 °F 41.0 °F 74% 29.84 in 10.0 mi WNW 9.2 mph - 0.00 in Rain Light Rain
7:53 AM 48.0 °F 43.0 °F 83% 29.88 in 9.0 mi WSW 6.9 mph - 0.00 in   Overcast
8:53 AM 48.0 °F 43.0 °F 83% 29.92 in 10.0 mi West 8.1 mph - N/A   Overcast
9:53 AM 51.1 °F 43.0 °F 74% 29.94 in 10.0 mi WSW 8.1 mph - N/A   Scattered Clouds
10:53 AM 52.0 °F 39.9 °F 63% 29.96 in 10.0 mi West 8.1 mph - N/A   Mostly Cloudy
11:53 AM 55.0 °F 34.0 °F 45% 29.97 in 10.0 mi NW 12.7 mph 20.7 mph N/A   Overcast
12:53 PM 59.0 °F 33.1 °F 38% 29.97 in 10.0 mi West 12.7 mph - N/A   Scattered Clouds
1:53 PM 59.0 °F 30.0 °F 33% 29.97 in 10.0 mi NW 10.4 mph 18.4 mph N/A   Scattered Clouds
2:53 PM 60.1 °F 28.0 °F 30% 29.98 in 10.0 mi West 11.5 mph 18.4 mph N/A   Scattered Clouds
3:53 PM 62.1 °F 28.0 °F 28% 29.98 in 10.0 mi WSW 12.7 mph 18.4 mph N/A   Mostly Cloudy
4:53 PM 63.0 °F 27.0 °F 26% 29.97 in 10.0 mi West 16.1 mph - N/A   Scattered Clouds
5:53 PM 62.1 °F 25.0 °F 24% 29.98 in 10.0 mi West 8.1 mph 20.7 mph N/A   Scattered Clouds
6:53 PM 61.0 °F 25.0 °F 25% 29.99 in 10.0 mi West 11.5 mph 17.3 mph N/A   Scattered Clouds
7:53 PM 57.9 °F 24.1 °F 27% 30.02 in 10.0 mi West 9.2 mph - N/A   Scattered Clouds
8:53 PM 55.0 °F 24.1 °F 30% 30.04 in 10.0 mi West 6.9 mph - N/A   Partly Cloudy
9:53 PM 52.0 °F 24.1 °F 34% 30.07 in 10.0 mi West 5.8 mph - N/A   Partly Cloudy
10:53 PM 52.0 °F 24.1 °F 34% 30.09 in 10.0 mi WNW 4.6 mph - N/A   Clear
11:53 PM 43.0 °F 28.9 °F 58% 30.11 in 10.0 mi Calm Calm - N/A   Clear